Overview Statistics Trail Chart Weather Telemetry Raw packets
 

This is the latest recevied weather packets stored in our database for station/object N8TWM-13. If no packets are shown the sender has not sent any weather packets the latest 10 day(s).

<< 20 21 22 23 24 25 26 >>
Time Temp. Humidity Pressure Rain* Wind** Luminosity Snow
1788471997 29.44° C 66% 1015.9 hPa 0 mm - 33 W/m² -
1788471692 31.11° C 71% 1015.7 hPa 0 mm - 41 W/m² -
1788471387 31.11° C 71% 1015.6 hPa 0 mm - 51 W/m² -
1788471083 31.11° C 70% 1015.7 hPa 0 mm - 66 W/m² -
1788470779 31.67° C 69% 1015.8 hPa 0 mm - 77 W/m² -
1788470474 31.67° C 69% 1015.7 hPa 0 mm - 75 W/m² -
1788470169 31.67° C 68% 1015.7 hPa 0 mm - 66 W/m² -
1788469866 31.67° C 69% 1014.9 hPa 0 mm - 104 W/m² -
1788469561 31.67° C 67% 1015.2 hPa 0 mm - 117 W/m² -
1788469256 32.22° C 66% 1015 hPa 0 mm - 140 W/m² -
1788468955 32.22° C 65% 1015.3 hPa 0 mm - 192 W/m² -
1788468654 32.22° C 65% 1015 hPa 0 mm - 258 W/m² -
1788468346 32.22° C 66% 1015.5 hPa 0 mm - 169 W/m² -
1788468041 32.78° C 64% 1015.3 hPa 0 mm - 147 W/m² -
1788467737 32.22° C 64% 1014.9 hPa 0 mm - 455 W/m² -
1788467436 32.78° C 64% 1014.9 hPa 0 mm - 170 W/m² -
1788467132 33.33° C 63% 1014.8 hPa 0 mm - 303 W/m² -
1788466827 33.33° C 64% 1015.1 hPa 0 mm - 495 W/m² -
1788466522 33.89° C 62% 1014.8 hPa 0 mm - 131 W/m² -
1788466221 33.89° C 61% 1014.9 hPa 0 mm - 532 W/m² -
1788465916 34.44° C 61% 1015.1 hPa 0 mm - 543 W/m² -
1788465620 34.44° C 60% 1014.9 hPa 0 mm - 552 W/m² -
1788465308 33.89° C 60% 1015.2 hPa 0 mm - 565 W/m² -
1788465003 33.89° C 62% 1015.3 hPa 0 mm - 556 W/m² -
1788464698 35° C 60% 1015.3 hPa 0 mm - 569 W/m² -

* Rain latest hour (hover to see other rain measurements)
** Current wind speed in m/s (hover to see current wind gust speed)